New Iberia, LA

12:39 AM CDT on May 30, 2017 (GMT -0500)
Acadiana Regional

Weather History for KARA - December, 2013

Change the Weather History Date:

Wednesday, December 4, 2013

  Actual Average Record
Temperature  
Mean Temperature 75 °F 56 °F  
Max Temperature 80 °F 67 °F 82 °F (1998)
Min Temperature 69 °F 46 °F 28 °F (2006)
Degree Days  
Heating Degree Days 0 10  
Month to date heating degree days 10 38  
Since 1 July heating degree days 243 233  
Cooling Degree Days 10 1  
Month to date cooling degree days 16 4  
Year to date cooling degree days 3207 2796  
Growing Degree Days 24 (Base 50)    
Moisture  
Dew Point 69 °F    
Average Humidity 87    
Maximum Humidity 100    
Minimum Humidity 74    
Precipitation  
Precipitation 0.00 in 0.20 in 4.94 in (1982)
Month to date precipitation 0.00 0.78  
Year to date precipitation 63.08 55.47  
Sea Level Pressure  
Sea Level Pressure 29.85 in    
Wind  
Wind Speed 11 mph (South)    
Max Wind Speed 18 mph    
Max Gust Speed 25 mph    
Visibility 4 miles    
Events Fog    
T = Trace of Precipitation, MM = Missing Value Source: NWS Daily Summary

Daily Weather History Graph

Daily Weather History Graph

Search for Another Location

Airport or City:

Trip Planner

Search our weather history database for the weather conditions in past years. The results will help you decide how hot, cold, wet, or windy it might be!

Date:

Astronomy

Dec. 04, 2013 Rise Set
Actual Time 6:48 AM CST 5:07 PM CST
Civil Twilight 6:22 AM CST 5:33 PM CST
Nautical Twilight 5:52 AM CST 6:03 PM CST
Astronomical Twilight 5:23 AM CST 6:32 PM CST
Moon 8:19 AM CST (12/4) 7:14 PM CST (12/4)
Length of Visible Light 11h 11m
Length of Day
10h 18m
Waxing Crescent, 4% of the Moon is Illuminated
Dec 4
Waxing Crescent
Dec 9
First Quarter
Dec 17
Full
Dec 25
Last Quarter
Jan 1
New

Hourly Weather History & Observations

Time (CST) Temp. Dew Point Humidity Pressure Visibility Wind Dir Wind Speed Gust Speed Precip Events Conditions
12:18 AM 69.8 °F 69.8 °F 100% 29.81 in 3.0 mi South 10.4 mph - N/A   Overcast
12:53 AM 71.1 °F 69.1 °F 93% 29.81 in 3.0 mi South 10.4 mph - N/A   Overcast
1:05 AM 69.8 °F 68.0 °F 94% 29.81 in 2.5 mi South 11.5 mph - N/A   Overcast
1:35 AM 71.6 °F 69.8 °F 94% 29.81 in 3.0 mi South 9.2 mph - N/A   Overcast
1:53 AM 70.0 °F 69.1 °F 97% 29.81 in 2.5 mi South 9.2 mph - N/A   Overcast
2:53 AM 70.0 °F 68.0 °F 93% 29.81 in 2.0 mi South 11.5 mph - N/A   Overcast
3:07 AM 69.8 °F 68.0 °F 94% 29.81 in 1.2 mi South 10.4 mph - N/A   Overcast
3:32 AM 69.8 °F 68.0 °F 94% 29.81 in 0.8 mi South 11.5 mph - N/A   Overcast
3:45 AM 69.8 °F 68.0 °F 94% 29.81 in 1.5 mi South 8.1 mph - N/A   Overcast
3:53 AM 69.1 °F 68.0 °F 96% 29.81 in 2.5 mi South 10.4 mph - N/A   Overcast
4:32 AM 69.8 °F 68.0 °F 94% 29.81 in 1.2 mi South 9.2 mph - N/A   Overcast
4:48 AM 69.8 °F 68.0 °F 94% 29.81 in 0.5 mi South 9.2 mph - N/A Fog Fog
4:53 AM 69.1 °F 68.0 °F 96% 29.81 in 0.5 mi South 9.2 mph - N/A Fog Fog
5:16 AM 69.8 °F 68.0 °F 94% 29.81 in 1.5 mi South 10.4 mph - N/A   Overcast
5:25 AM 69.8 °F 68.0 °F 94% 29.81 in 2.5 mi South 9.2 mph - N/A   Overcast
5:33 AM 69.8 °F 68.0 °F 94% 29.82 in 3.0 mi South 9.2 mph - N/A   Overcast
5:53 AM 69.1 °F 68.0 °F 96% 29.83 in 2.5 mi South 10.4 mph - N/A   Overcast
6:01 AM 69.8 °F 68.0 °F 94% 29.83 in 3.0 mi South 10.4 mph - N/A   Overcast
6:36 AM 69.8 °F 68.0 °F 94% 29.84 in 0.5 mi South 11.5 mph - N/A   Overcast
6:53 AM 70.0 °F 68.0 °F 93% 29.84 in 0.5 mi South 9.2 mph - N/A   Overcast
7:11 AM 69.8 °F 68.0 °F 94% 29.85 in 0.2 mi South 8.1 mph - N/A Fog Fog
7:31 AM 69.8 °F 68.0 °F 94% 29.86 in 0.8 mi South 9.2 mph - N/A   Overcast
7:36 AM 69.8 °F 68.0 °F 94% 29.86 in 2.0 mi South 10.4 mph - N/A   Overcast
7:45 AM 69.8 °F 69.8 °F 100% 29.87 in 4.0 mi South 10.4 mph - N/A   Overcast
7:53 AM 70.0 °F 69.1 °F 97% 29.87 in 5.0 mi South 9.2 mph - N/A   Overcast
8:53 AM 72.0 °F 69.1 °F 91% 29.89 in 8.0 mi South 12.7 mph - N/A   Overcast
9:09 AM 73.4 °F 69.8 °F 88% 29.90 in 9.0 mi South 10.4 mph - N/A   Overcast
9:31 AM 75.2 °F 69.8 °F 83% 29.90 in 10.0 mi South 11.5 mph - N/A   Mostly Cloudy
9:53 AM 75.0 °F 70.0 °F 84% 29.91 in 10.0 mi South 15.0 mph 21.9 mph N/A   Mostly Cloudy
10:29 AM 77.0 °F 71.6 °F 83% 29.90 in 10.0 mi South 15.0 mph - N/A   Mostly Cloudy
10:43 AM 78.8 °F 69.8 °F 74% 29.90 in 10.0 mi South 13.8 mph - N/A   Mostly Cloudy
10:53 AM 77.0 °F 70.0 °F 79% 29.90 in 10.0 mi South 13.8 mph - N/A   Mostly Cloudy
11:53 AM 79.0 °F 70.0 °F 74% 29.88 in 10.0 mi South 15.0 mph 23.0 mph N/A   Mostly Cloudy
12:53 PM 79.0 °F 70.0 °F 74% 29.86 in 10.0 mi South 15.0 mph 23.0 mph N/A   Mostly Cloudy
1:39 PM 77.0 °F 69.8 °F 78% 29.85 in 10.0 mi South 16.1 mph 21.9 mph N/A   Overcast
1:53 PM 78.1 °F 70.0 °F 76% 29.85 in 10.0 mi South 13.8 mph - N/A   Mostly Cloudy
2:53 PM 77.0 °F 70.0 °F 79% 29.83 in 10.0 mi South 11.5 mph 24.2 mph N/A   Unknown
3:06 PM 77.0 °F 69.8 °F 78% 29.83 in 10.0 mi South 12.7 mph - N/A   Mostly Cloudy
3:53 PM 75.9 °F 70.0 °F 82% 29.83 in 10.0 mi South 12.7 mph - N/A   Mostly Cloudy
4:05 PM 75.2 °F 69.8 °F 83% 29.83 in 10.0 mi South 12.7 mph - N/A   Scattered Clouds
4:17 PM 75.2 °F 69.8 °F 83% 29.83 in 10.0 mi South 12.7 mph - N/A   Mostly Cloudy
4:26 PM 73.4 °F 69.8 °F 88% 29.83 in 10.0 mi South 13.8 mph 19.6 mph N/A   Scattered Clouds
4:34 PM 73.4 °F 69.8 °F 88% 29.83 in 10.0 mi South 12.7 mph - N/A   Mostly Cloudy
4:53 PM 73.0 °F 70.0 °F 90% 29.83 in 9.0 mi South 15.0 mph 25.3 mph N/A   Overcast
5:05 PM 71.6 °F 69.8 °F 94% 29.84 in 4.0 mi South 12.7 mph - N/A   Overcast
5:18 PM 71.6 °F 69.8 °F 94% 29.84 in 1.8 mi South 12.7 mph - N/A   Overcast
5:33 PM 71.6 °F 69.8 °F 94% 29.84 in 3.0 mi South 10.4 mph - N/A   Overcast
5:53 PM 72.0 °F 70.0 °F 93% 29.85 in 4.0 mi South 11.5 mph - N/A   Overcast
6:41 PM 71.6 °F 69.8 °F 94% 29.85 in 2.0 mi South 10.4 mph - N/A   Overcast
6:49 PM 71.6 °F 69.8 °F 94% 29.85 in 1.0 mi South 11.5 mph - N/A   Overcast
6:53 PM 71.1 °F 69.1 °F 93% 29.86 in 0.8 mi South 11.5 mph - N/A   Overcast
7:15 PM 71.6 °F 69.8 °F 94% 29.87 in 1.0 mi South 10.4 mph - N/A   Mist
7:26 PM 71.6 °F 69.8 °F 94% 29.87 in 0.8 mi South 9.2 mph - N/A   Mist
7:49 PM 71.6 °F 69.8 °F 94% 29.87 in 1.5 mi South 10.4 mph - N/A   Overcast
7:53 PM 71.1 °F 69.1 °F 93% 29.88 in 2.0 mi South 9.2 mph - N/A   Overcast
8:08 PM 71.6 °F 69.8 °F 94% 29.88 in 1.5 mi South 8.1 mph - N/A   Overcast
8:21 PM 71.6 °F 69.8 °F 94% 29.88 in 2.5 mi South 9.2 mph - N/A   Overcast
8:31 PM 71.6 °F 69.8 °F 94% 29.88 in 3.0 mi South 9.2 mph - N/A   Overcast
8:51 PM 71.6 °F 69.8 °F 94% 29.89 in 2.0 mi South 6.9 mph - N/A   Overcast
8:53 PM 71.1 °F 70.0 °F 96% 29.89 in 2.0 mi South 5.8 mph - N/A   Overcast
9:12 PM 71.6 °F 69.8 °F 94% 29.89 in 1.0 mi South 10.4 mph - N/A   Overcast
9:21 PM 71.6 °F 69.8 °F 94% 29.90 in 0.8 mi South 9.2 mph - N/A   Mist
9:39 PM 71.6 °F 69.8 °F 94% 29.89 in 1.5 mi South 8.1 mph - N/A   Overcast
9:53 PM 71.1 °F 70.0 °F 96% 29.90 in 1.8 mi South 10.4 mph - N/A   Overcast
10:16 PM 71.6 °F 69.8 °F 94% 29.91 in 2.5 mi South 12.7 mph - N/A   Overcast
10:30 PM 71.6 °F 69.8 °F 94% 29.91 in 5.0 mi South 10.4 mph - N/A   Overcast
10:53 PM 72.0 °F 70.0 °F 93% 29.92 in 8.0 mi South 10.4 mph - N/A   Overcast
11:37 PM 71.6 °F 69.8 °F 94% 29.92 in 8.0 mi South 6.9 mph - N/A   Overcast
11:53 PM 72.0 °F 70.0 °F 93% 29.91 in 8.0 mi South 10.4 mph - N/A   Overcast